Regional Weather Roundup
Issued by NWS Sterling, VA

Home | Current Version | Previous Version | Graphics & Text | Print | Product List | Glossary On
Versions: 1 2 3 4 5 6 7 8 9 10 11 12 13 14 15 16 17 18 19 20 21 22 23 24 25 26 27 28
000
ASUS41 KLWX 241011
RWRLWX

REGIONAL WEATHER ROUNDUP
NATIONAL WEATHER SERVICE BALTIMORE MD/WASHINGTON DC
600 AM EDT MON APR 24 2017

Note: "FAIR" indicates few or no clouds below 12,000 feet
with no significant weather and/or obstructions to visibility.
 TC=TEMPERATURE CELSIUS

 * =Non NWS site. Station does not report precipitation (e.g. rain,
    snow, etc.), thunder, or fog.

DCZ001-MDZ009-015-VAZ040>042-051-053>054-241100-
WASHINGTON METRO

CITY           SKY/WX    TMP DP  RH WIND       PRES   REMARKS
WASHINGTON NAT CLOUDY    54  46  74 NE9       30.08R
DULLES         LGT RAIN  52  48  86 N5        30.07S
ANDREWS AFB    LGT RAIN  50  45  81 NE7       30.06R
FT BELVOIR     LGT RAIN  51  48  87 CALM      30.07R
QUANTICO       CLOUDY    54  48  80 NE8       30.07S
COLLEGE PARK*  CLOUDY    52  45  78 CALM      30.07S
LEESBURG*      LGT RAIN  52  52 100 CALM      30.08S
MANASSAS*      LGT RAIN  50  48  93 NE5       30.08R

$$

MDZ006>007-011-014-241100-
BALTIMORE METRO

CITY           SKY/WX    TMP DP  RH WIND       PRES   REMARKS
BWI AIRPORT    CLOUDY    53  46  77 NE8       30.08R
MD SCIENCE CTR   N/A     54  44  69 MISG      30.09R
MARTIN STATE   CLOUDY    54  50  87 N5        30.10S
ANNAPOLIS      CLOUDY    54  47  77 NE3       30.07R
FORT MEADE*    CLOUDY    52  45  76 CALM      30.10R

$$

MDZ012-015-019>023-241100-
MARYLAND EASTERN SHORE

CITY           SKY/WX    TMP DP  RH WIND       PRES   REMARKS
OCEAN CITY     CLOUDY    51  47  86 NE12      30.05S
SALISBURY      LGT RAIN  49  47  93 NE12      30.04S
BAY BRIDGE AP* CLOUDY    52  46  82 NE7       30.07S
CAMBRIDGE*     CLOUDY    50  46  87 NE9       30.05F
EASTON*        PTCLDY    52  46  82 NE7       30.10S

$$

MDZ017>025-241100-
SOUTHERN MARYLAND

CITY           SKY/WX    TMP DP  RH WIND       PRES   REMARKS
PATUXENT RIVER CLOUDY    51  47  86 NE9       30.03F
ST INIGOES     CLOUDY    52  47  83 NE10      30.02S
LEONARDTOWN*   CLOUDY    50  45  81 CALM      30.05F

$$

MDZ003>005-241100-
NORTH CENTRAL MARYLAND

CITY           SKY/WX    TMP DP  RH WIND       PRES   REMARKS
FREDERICK*     DRIZZLE   52  52 100 CALM      30.11R
HAGERSTOWN APT LGT RAIN  53  45  74 CALM      30.08R
WESTMINSTER*   DRIZZLE   52  48  87 CALM      30.08R

$$

MDZ501>502-241100-
WESTERN MARYLAND

CITY           SKY/WX    TMP DP  RH WIND       PRES   REMARKS
OAKLAND*       CLOUDY    41  39  93 SE15      30.02S FOG
CUMBERLAND*    CLOUDY    50  46  87 CALM      30.11S

$$

VAZ025>031-241100-
SHENANDOAH VALLEY

CITY           SKY/WX    TMP DP  RH WIND       PRES   REMARKS
WINCHESTER*    RAIN      46  45  93 CALM      30.07R
FRONT ROYAL*   CLOUDY    48  48 100 CALM      30.06S
LURAY*         LGT RAIN  46  46 100 N6        30.04F
NEW MARKET*    CLOUDY    47  46  95 N8        30.04S
STAUNTON*      LGT RAIN  46  46  97 N5        30.05R
WAYNESBORO*    CLOUDY    46  46 100 N5        30.02S

$$

WVZ021-048>050-054>055-241100-
EASTERN WEST VIRGINIA PANHANDLE

CITY           SKY/WX    TMP DP  RH WIND       PRES   REMARKS
MARTINSBURG    LGT RAIN  50  47  89 N5        30.07R
PETERSBURG*    RAIN      49  48  96 CALM      30.07R

$$

VAZ036>039-050-241100-
CENTRAL FOOTHILLS

CITY           SKY/WX    TMP DP  RH WIND       PRES   REMARKS
CHARLOTTESVILL LGT RAIN  51  48  89 NE12      30.03R
CULPEPER*      DRIZZLE   49  46  90 NE6       30.08R
ORANGE*        CLOUDY    48  45  87 NE7       30.04F
GORDONSVILLE*  CLOUDY    49  47  90 NE8       30.03S
WARRENTON*     RAIN      49  44  81 N6        30.06S

$$

VAZ055>057-241100-
NORTH AND CENTRAL PIEDMONT

CITY           SKY/WX    TMP DP  RH WIND       PRES   REMARKS
FREDERICKSBRG* CLOUDY    50  48  91 N5        30.04S
STAFFORD*      CLOUDY    49  46  90 E6        30.10R

$$

NCZ024-NYZ072-PAZ021-071-VAZ022-071-241100-
OTHER REGIONAL OBSERVATIONS

CITY           SKY/WX    TMP DP  RH WIND       PRES   REMARKS
NEW YORK CITY  PTCLDY    48  43  82 CALM      30.15S
PHILADELPHIA   CLOUDY    50  45  83 E7        30.11S
PITTSBURGH     MOCLDY    46  34  62 E8        30.01R
ROANOKE        HVY RAIN  48  47  96 NE7       29.99F FOG
RICHMOND       CLOUDY    50  50 100 NE14      29.98F FOG
RALEIGH        FOG       54  53  97 NE10      29.88F VSB 1

$$

ANZ530>537-241100-
MARINE OBSERVATIONS

STATION/POSITION TIME  TEMP    WIND        PRES
                       AIR SEA DIR/SP/G
                 (UTC) (F)     (DEG/KT/KT) (MB)
THOMAS PT LIGHT  1000   52 58   60/ 10/ 11   N/A
BALT KEY BRIDGE  0948   53      50/  8/ 10 1018.5R
COVE POINT       0948   52      70/ 13/ 16 1017.8F
LEWISETTA        0948   53 62   60/  9/ 15 1016.3F
SOLOMONS ISLAND  0948   52 61   30/  8/ 11   N/A
PINEY POINT      0948           60/  8/ 10   N/A

$$





USA.gov is the U.S. government's official web portal to all federal, state and local government web resources and services.